Voltar ao catálogo

STARLINK-37406

AtivoComunicaçõesVLEO
NORAD 69199·PAYLOAD·🇺🇸 United States

Lançado May 25, 2026 de Cape Canaveral Space Force Station

Loading…

Próximas Passagens (próximas 24 horas)

TLE

AtualizadoSource: CelesTrak SupGP

Época: Sep 14, 2026, 21:08 UTC

1 69199C 26114T   26257.88104167 -.00015045  00000+0 -44367-3 0  2575
2 69199  53.1572 139.9452 0001258  81.1782 301.7987 15.34457642    12

Acompanhe STARLINK-37406 em tempo real com AllMySat

Download on the App Store